Tracking 20232 objects as of 18-Jan-2020
HD Live streaming from Space Station
objects crossing your sky now

METEOR 3M

Track METEOR 3M now!
10-day predictions
METEOR 3M is classified as:


NORAD ID: 27001
Int'l Code: 2001-056A
Perigee: 1,000.2 km
Apogee: 1,021.5 km
Inclination: 99.5 °
Period: 105.2 minutes
Semi major axis: 7381 km
RCS: 7.1203 m2 (large)
Launch date: December 10, 2001
Source: Commonwealth of Independent States (former USSR) (CIS)
Launch site: TYURATAM MISSILE AND SPACE COMPLEX (TTMTR)
aabbcc
Your satellite tracking list
Your tracking list is empty




NASA's NSSDC Master Catalog

Two Line Element Set (TLE):
1 27001U 01056A   20017.57688937 -.00000028 +00000-0 +18876-4 0  9990
2 27001 099.5460 156.5547 0014414 082.3790 056.8133 13.68837202904392
Source of the keplerian elements: AFSPC